• In Deutschland
  • Länderverzeichnis
  • Für 7 Tage
  • Wassertemperatur
  • Satellitenkarten
  • Wetterkarte
  • Widgets
  • user-avatar
    Anmelden

    Stündliche Wetter Tbilissi

    Heute, 20 Oktober, Samstag

    Zeit Temperatur Niederschläge Wind Luftdruck Luftfeuchtigkeit
    00:00 +13°C° 0 mm 1 m/S 704 mmHg 73%
    01:00 +13°C° 0 mm 1 m/S 704 mmHg 71%
    02:00 +13°C° 0 mm 1 m/S 703 mmHg 70%
    03:00 +13°C° 0 mm 1 m/S 703 mmHg 68%
    04:00 +13°C° 0 mm 1 m/S 703 mmHg 68%
    05:00 +13°C° 0 mm 1 m/S 703 mmHg 68%
    06:00 +13°C° 0 mm 1 m/S 703 mmHg 68%
    07:00 +14°C° 0 mm 1 m/S 703 mmHg 65%
    08:00 +16°C° 0 mm 1 m/S 703 mmHg 61%
    09:00 +19°C° 0 mm 1 m/S 703 mmHg 55%
    10:00 +20°C° 0 mm 1 m/S 703 mmHg 51%
    11:00 +22°C° 0 mm 1 m/S 703 mmHg 47%
    12:00 +23°C° 0 mm 1 m/S 703 mmHg 43%
    13:00 +23°C° 0 mm 1 m/S 703 mmHg 42%
    14:00 +23°C° 0 mm 1 m/S 702 mmHg 41%
    15:00 +24°C° 0 mm 1 m/S 702 mmHg 40%
    16:00 +22°C° 0 mm 1 m/S 702 mmHg 47%
    17:00 +20°C° 0 mm 1 m/S 702 mmHg 53%
    18:00 +16°C° 0 mm 0 m/S 702 mmHg 60%
    19:00 +16°C° 0 mm 0 m/S 702 mmHg 61%
    20:00 +15°C° 0 mm 0 m/S 702 mmHg 62%
    21:00 +16°C° 0 mm 1 m/S 702 mmHg 63%
    22:00 +15°C° 0 mm 1 m/S 702 mmHg 64%
    23:00 +15°C° 0 mm 1 m/S 702 mmHg 65%

    Morgen, 21 Oktober, Sonntag

    Zeit Temperatur Niederschläge Wind Luftdruck Luftfeuchtigkeit
    00:00 +15°C° 0 mm 1 m/S 702 mmHg 66%
    01:00 +14°C° 0 mm 1 m/S 702 mmHg 66%
    02:00 +14°C° 0 mm 1 m/S 702 mmHg 67%
    03:00 +14°C° 0 mm 1 m/S 702 mmHg 67%
    04:00 +14°C° 0 mm 1 m/S 701 mmHg 67%
    05:00 +13°C° 0 mm 1 m/S 701 mmHg 67%
    06:00 +13°C° 0 mm 1 m/S 701 mmHg 67%
    07:00 +15°C° 0 mm 1 m/S 702 mmHg 62%
    08:00 +18°C° 0 mm 1 m/S 702 mmHg 57%
    09:00 +19°C° 0 mm 1 m/S 702 mmHg 52%
    10:00 +21°C° 0 mm 1 m/S 702 mmHg 48%
    11:00 +22°C° 0 mm 1 m/S 702 mmHg 45%
    12:00 +23°C° 0 mm 2 m/S 702 mmHg 42%
    13:00 +24°C° 0 mm 2 m/S 702 mmHg 41%
    14:00 +24°C° 0 mm 2 m/S 702 mmHg 40%
    15:00 +24°C° 0 mm 2 m/S 701 mmHg 39%
    16:00 +21°C° 0 mm 2 m/S 701 mmHg 46%
    17:00 +20°C° 0 mm 1 m/S 701 mmHg 52%
    18:00 +18°C° 0 mm 1 m/S 701 mmHg 58%
    19:00 +18°C° 0 mm 1 m/S 701 mmHg 59%
    20:00 +16°C° 0 mm 1 m/S 702 mmHg 60%
    21:00 +16°C° 0 mm 1 m/S 702 mmHg 61%
    22:00 +15°C° 0 mm 1 m/S 702 mmHg 61%
    23:00 +15°C° 0 mm 1 m/S 702 mmHg 62%

    übermorgen, 22 Oktober, Montag

    Zeit Temperatur Niederschläge Wind Luftdruck Luftfeuchtigkeit
    00:00 +15°C° 0 mm 1 m/S 702 mmHg 62%
    01:00 +14°C° 0 mm 1 m/S 702 mmHg 62%
    02:00 +14°C° 0 mm 1 m/S 702 mmHg 62%
    03:00 +14°C° 0 mm 1 m/S 702 mmHg 62%
    04:00 +14°C° 0 mm 1 m/S 702 mmHg 62%
    05:00 +14°C° 0 mm 1 m/S 702 mmHg 62%
    06:00 +13°C° 0 mm 1 m/S 702 mmHg 62%
    07:00 +15°C° 0 mm 1 m/S 702 mmHg 57%
    08:00 +16°C° 0 mm 1 m/S 703 mmHg 52%
    09:00 +19°C° 0 mm 1 m/S 703 mmHg 48%
    10:00 +20°C° 0 mm 1 m/S 703 mmHg 46%
    11:00 +21°C° 0 mm 1 m/S 703 mmHg 44%
    12:00 +22°C° 0 mm 1 m/S 703 mmHg 42%
    13:00 +22°C° 0 mm 1 m/S 703 mmHg 42%
    14:00 +22°C° 0 mm 1 m/S 703 mmHg 42%
    15:00 +22°C° 0 mm 1 m/S 703 mmHg 42%
    16:00 +21°C° 0 mm 1 m/S 702 mmHg 47%
    17:00 +19°C° 0 mm 1 m/S 702 mmHg 53%
    18:00 +15°C° 0 mm 0 m/S 702 mmHg 58%
    19:00 +16°C° 0 mm 1 m/S 703 mmHg 59%
    20:00 +16°C° 0 mm 1 m/S 703 mmHg 61%
    21:00 +15°C° 0 mm 1 m/S 703 mmHg 62%
    22:00 +15°C° 0 mm 1 m/S 703 mmHg 62%
    23:00 +15°C° 0 mm 1 m/S 703 mmHg 63%

    23 Oktober, Dienstag

    Zeit Temperatur Niederschläge Wind Luftdruck Luftfeuchtigkeit
    00:00 +14°C° 0 mm 1 m/S 703 mmHg 63%
    01:00 +14°C° 0 mm 1 m/S 703 mmHg 64%
    02:00 +14°C° 0 mm 1 m/S 703 mmHg 65%
    03:00 +14°C° 0 mm 1 m/S 703 mmHg 65%
    04:00 +13°C° 0 mm 1 m/S 703 mmHg 66%
    05:00 +13°C° 0 mm 1 m/S 702 mmHg 66%
    06:00 +13°C° 0 mm 1 m/S 702 mmHg 67%
    07:00 +14°C° 0 mm 1 m/S 703 mmHg 61%
    08:00 +16°C° 0 mm 1 m/S 703 mmHg 56%
    09:00 +18°C° 0 mm 1 m/S 703 mmHg 50%
    10:00 +20°C° 0 mm 1 m/S 703 mmHg 47%
    11:00 +21°C° 0 mm 1 m/S 703 mmHg 44%
    12:00 +22°C° 0 mm 1 m/S 702 mmHg 41%
    13:00 +22°C° 0.1 mm 1 m/S 702 mmHg 42%
    14:00 +21°C° 0.1 mm 1 m/S 702 mmHg 44%
    15:00 +21°C° 0.1 mm 1 m/S 701 mmHg 45%
    16:00 +20°C° 0.2 mm 1 m/S 702 mmHg 52%
    17:00 +18°C° 0.2 mm 1 m/S 702 mmHg 60%
    18:00 +16°C° 0.2 mm 1 m/S 702 mmHg 68%
    19:00 +15°C° 0 mm 1 m/S 702 mmHg 70%
    20:00 +15°C° 0 mm 1 m/S 702 mmHg 72%
    21:00 +14°C° 0 mm 1 m/S 702 mmHg 75%
    22:00 +14°C° 0 mm 1 m/S 702 mmHg 75%
    23:00 +13°C° 0 mm 1 m/S 702 mmHg 75%

    24 Oktober, Mittwoch

    Zeit Temperatur Niederschläge Wind Luftdruck Luftfeuchtigkeit
    00:00 +13°C° 0 mm 1 m/S 701 mmHg 75%
    01:00 +13°C° 0 mm 1 m/S 701 mmHg 74%
    02:00 +12°C° 0 mm 1 m/S 701 mmHg 73%
    03:00 +12°C° 0 mm 1 m/S 701 mmHg 72%
    04:00 +12°C° 0 mm 1 m/S 701 mmHg 70%
    05:00 +12°C° 0 mm 1 m/S 700 mmHg 69%
    06:00 +12°C° 0 mm 1 m/S 700 mmHg 68%
    07:00 +13°C° 0 mm 1 m/S 700 mmHg 62%
    08:00 +15°C° 0 mm 1 m/S 700 mmHg 55%
    09:00 +18°C° 0 mm 1 m/S 700 mmHg 48%
    10:00 +20°C° 0 mm 1 m/S 700 mmHg 45%
    11:00 +20°C° 0 mm 2 m/S 700 mmHg 42%
    12:00 +21°C° 0 mm 2 m/S 699 mmHg 39%
    13:00 +21°C° 0 mm 2 m/S 699 mmHg 38%
    14:00 +21°C° 0 mm 2 m/S 698 mmHg 38%
    15:00 +23°C° 0 mm 2 m/S 698 mmHg 37%
    16:00 +20°C° 0 mm 2 m/S 698 mmHg 42%
    17:00 +18°C° 0 mm 2 m/S 697 mmHg 46%
    18:00 +17°C° 0 mm 2 m/S 697 mmHg 50%
    19:00 +16°C° 0 mm 2 m/S 697 mmHg 50%
    20:00 +16°C° 0 mm 1 m/S 697 mmHg 50%
    21:00 +16°C° 0 mm 1 m/S 697 mmHg 51%
    22:00 +15°C° 0.3 mm 1 m/S 696 mmHg 54%
    23:00 +15°C° 0.3 mm 2 m/S 696 mmHg 57%

    25 Oktober, Donnerstag

    Zeit Temperatur Niederschläge Wind Luftdruck Luftfeuchtigkeit
    00:00 +15°C° 0.3 mm 2 m/S 695 mmHg 60%
    01:00 +14°C° 0.7 mm 2 m/S 695 mmHg 64%
    02:00 +13°C° 0.7 mm 2 m/S 694 mmHg 68%
    03:00 +13°C° 0.7 mm 2 m/S 694 mmHg 72%
    04:00 +13°C° 0.4 mm 2 m/S 694 mmHg 73%
    05:00 +13°C° 0.4 mm 2 m/S 694 mmHg 74%
    06:00 +13°C° 0.4 mm 2 m/S 694 mmHg 75%
    07:00 +14°C° 0 mm 2 m/S 694 mmHg 69%
    08:00 +15°C° 0 mm 2 m/S 694 mmHg 64%
    09:00 +16°C° 0 mm 2 m/S 694 mmHg 58%
    10:00 +18°C° 0 mm 2 m/S 693 mmHg 53%
    11:00 +19°C° 0 mm 2 m/S 693 mmHg 49%
    12:00 +20°C° 0 mm 2 m/S 693 mmHg 44%
    13:00 +21°C° 0.1 mm 2 m/S 692 mmHg 44%
    14:00 +21°C° 0.1 mm 2 m/S 692 mmHg 43%
    15:00 +21°C° 0.1 mm 2 m/S 692 mmHg 43%
    16:00 +20°C° 0.2 mm 2 m/S 692 mmHg 48%
    17:00 +18°C° 0.2 mm 2 m/S 692 mmHg 53%
    18:00 +18°C° 0.2 mm 1 m/S 692 mmHg 59%
    19:00 +17°C° 0.1 mm 2 m/S 692 mmHg 60%
    20:00 +16°C° 0.1 mm 2 m/S 692 mmHg 62%
    21:00 +16°C° 0.1 mm 2 m/S 692 mmHg 64%
    22:00 +16°C° 0.2 mm 2 m/S 692 mmHg 65%
    23:00 +15°C° 0.2 mm 2 m/S 692 mmHg 66%
    Mehr zeigen